This demonstration page uses our WeatherBlox Daily Observations layout. Learn more.

Left ArrowRight Arrow

36.19886, -115.1175

Hourly Observations for August 15, 2015

Temp ( °F °C ) Dew Point ( °F °C ) Humidity (%) Winds ( mph kmh ) Pressure ( in mb ) Visibility ( mi km ) Precip ( " mm )
12:53 am 00:53 Clear 89 31.7 59 15 36 36 W 6 9 29.93 1013 10 16 0.00 0.00
1:53 am 01:53 Clear 85 29.4 60 15.6 43 43 Calm 29.92 1013 10 16 0.00 0.00
2:53 am 02:53 Clear 84 28.9 60 15.6 44 44 NNW 3 6 29.92 1013 10 16 0.00 0.00
3:53 am 03:53 Clear 83 28.3 60 15.6 46 46 ENE 3 6 29.93 1014 10 16 0.00 0.00
4:53 am 04:53 Clear 82 27.8 60 15.6 47 47 Calm 29.94 1014 10 16 0.00 0.00
5:53 am 05:53 Clear 80 26.7 59 15 49 49 NNW 5 7 29.95 1014 10 16 0.00 0.00
6:53 am 06:53 Sunny 82 27.8 59 15 46 46 Calm 29.96 1015 10 16 0.00 0.00
7:53 am 07:53 Sunny 85 29.4 60 15.6 43 43 Calm 29.97 1015 10 16 0.00 0.00
8:53 am 08:53 Sunny 88 31.1 58 14.4 36 36 Calm 29.97 1015 10 16 0.00 0.00
9:53 am 09:53 Sunny 92 33.3 57 13.9 31 31 SE 6 9 29.96 1015 10 16 0.00 0.00
10:53 am 10:53 Sunny 94 34.4 57 13.9 29 29 SSE 6 9 29.96 1015 10 16 0.00 0.00
11:53 am 11:53 Sunny 97 36.1 55 12.8 24 24 SE 8 13 29.94 1014 10 16 0.00 0.00
12:53 pm 12:53 Sunny 101 38.3 52 11.1 19 19 SE 9 15 29.92 1013 10 16 0.00 0.00
1:53 pm 13:53 Sunny 102 38.9 51 10.6 18 18 ESE 7 11 29.88 1012 10 16 0.00 0.00
2:53 pm 14:53 Sunny 105 40.6 48 8.9 15 15 S 7 11 29.85 1011 10 16 0.00 0.00
3:53 pm 15:53 Sunny 108 42.2 43 6.1 11 11 SW 10 17 29.81 1010 10 16 0.00 0.00
4:53 pm 16:53 Sunny 108 42.2 43 6.1 11 11 N 7 11 29.80 1009 10 16 0.00 0.00
5:53 pm 17:53 Sunny 107 41.7 42 5.6 11 11 SSW 14 22 29.78 1008 10 16 0.00 0.00
6:53 pm 18:53 Sunny 106 41.1 41 5 11 11 SW 13 20 29.78 1008 10 16 0.00 0.00
7:53 pm 19:53 Clear 103 39.4 42 5.6 12 12 W 9 15 29.79 1009 10 16 0.00 0.00
8:53 pm 20:53 Clear 101 38.3 42 5.6 13 13 W 7 11 29.80 1009 10 16 0.00 0.00
9:53 pm 21:53 Clear 99 37.2 43 6.1 15 15 WSW 6 9 29.81 1009 10 16 0.00 0.00
10:53 pm 22:53 Clear 96 35.6 43 6.1 16 16 N 5 7 29.82 1010 10 16 0.00 0.00
11:53 pm 23:53 Clear 93 33.9 45 7.2 19 19 Calm 29.83 1010 10 16 0.00 0.00

Powered by AerisWeather